Clayton Garbett

チーフスカウト - Canterbury United
4 4月 2027
日曜日
処理

性格

適応力 (5) 野心 (6) 物議 (17) 忠誠心 (11) プレッシャー耐性 (1) プロ意識 (6) スポーツマンシップ (5) 気質 (4)

プロフィール

指導スタイル 民主型
ライセンス 大陸A級
決断力 4
人材管理 8
モチベーション 6
規律 1
仕事満足度
98%
疲労度
0%
役職 チーフスカウト
給与 35.4K 週給
契約 14.03.2028

パフォーマンス

態度 良い
トレーニング効果
27%
選手育成
10%
怪我予防
25%
戦術実行
25%

最近の出来事

補強会議に出席 たった今
補強会議に出席 たった今
補強会議に出席 たった今
補強会議に出席 たった今
補強会議に出席 たった今
補強会議に出席 たった今
補強会議に出席 たった今
補強会議に出席 7日前

監視中

158
選手 クラブ 状態 能力 自信 視察済み 最終確認 最新投票
Claudio Salto Almagro アクティブ 117 / 109 40% 1 01.01.2027 -
Santiago Cubides Jaguares アクティブ 122 / 78 40% 1 01.01.2027 -
Lucas González Estudiantes アクティブ 110 / 120 40% 3 31.12.2026 -
Adam Bareiro Boca Juniors アクティブ 124 / 147 40% 1 31.12.2026 情報不足
Alejandro Melo Temperley アクティブ 91 / 127 40% 5 30.12.2026 -
Alisher Odilov Neftchi アクティブ 123 / 121 40% 1 30.12.2026 -
Matt Ellis Auckland City アクティブ 77 / 97 40% 3 28.12.2026 -
Julián Aquino Atlanta アクティブ 111 / 103 40% 1 28.12.2026 -
Ramiro Luna Quilmes アクティブ 137 / 94 40% 1 28.12.2026 情報不足
Mateo Mamani Colegiales 交渉中 111 / 121 40% 1 25.12.2026 情報不足
Tomás Attis Patronato アクティブ 117 / 122 40% 1 23.12.2026 -
David Terans Fluminense アクティブ 127 / 103 40% 1 23.12.2026 -
Maximiliano Ribero Central Norte アクティブ 129 / 124 40% 1 23.12.2026 -
Imeda Ashortia Andijon アクティブ 108 / 119 40% 4 20.12.2026 -
Néstor Breitenbruch Aldosivi アクティブ 93 / 112 40% 1 20.12.2026 -
David Yoo Auckland City アクティブ 112 / 108 40% 1 20.12.2026 情報不足
Jhon Aponza Boca Juniors アクティブ 95 / 104 40% 1 20.12.2026 情報不足
Mateus Castro Nagoya Grampus アクティブ 137 / 96 40% 2 19.12.2026 -
Zane Helweh Macarthur FC アクティブ 77 / 83 40% 3 17.12.2026 -
Brandon Caicedo Atletico Bucaramanga アクティブ 87 / 118 40% 1 16.12.2026 -
Álex Perdomo Defensor Sporting アクティブ 94 / 100 40% 1 16.12.2026 -
Brian Blando Agropecuario Argentino アクティブ 107 / 134 40% 1 15.12.2026 -
Vlatko Stojanovski Mashal アクティブ 78 / 81 40% 1 14.12.2026 -
Augusto Berrondo Tristán Suárez アクティブ 126 / 88 40% 1 14.12.2026 -
Jai Tuiloma Southern United アクティブ 92 / 83 40% 1 12.12.2026 -
Brandon Márquez Sarmiento アクティブ 82 / 128 40% 1 12.12.2026 -
Alex Badolato Newcastle Jets アクティブ 108 / 116 40% 2 11.12.2026 情報不足
Igor Formiga Mirassol アクティブ 114 / 124 40% 1 11.12.2026 -
Juan Salas Patronato アクティブ 127 / 104 40% 1 11.12.2026 -
Jhon Navia Junior アクティブ 81 / 91 40% 1 10.12.2026 -
Paulinho Internacional アクティブ 148 / 101 40% 1 08.12.2026 情報不足
Facundo Lencioni Gimnasia y Esgrima アクティブ 126 / 100 40% 1 08.12.2026 情報不足
Kaio Nunes Borneo アクティブ 107 / 93 40% 1 06.12.2026 -
Winston McCowatt Hawke's Bay United アクティブ 91 / 88 40% 1 06.12.2026 -
Ljupce Doriev Sogdiana アクティブ 99 / 119 40% 2 04.12.2026 -
Danilo Santacruz Madura United アクティブ 127 / 115 40% 2 02.12.2026 -
Arthur De Lima Central Coast Mariners アクティブ 98 / 119 40% 1 02.12.2026 -
Adrián Dalmau PSIM アクティブ 124 / 116 40% 2 01.12.2026 -
Abu Azeez Team Wellington アクティブ 75 / 106 40% 2 01.12.2026 -
Nicolás Romano Gimnasia y Esgrima アクティブ 131 / 131 40% 1 01.12.2026 -
Luquinhas PSBS Biak アクティブ 115 / 90 40% 2 27.11.2026 -
Gabriel Rocha Argentinos Juniors アクティブ 109 / 85 40% 1 27.11.2026 -
Sebastián Camacho Uruguay Montevideo アクティブ 109 / 94 40% 1 24.11.2026 -
Joel Kojo Navbahor アクティブ 129 / 106 40% 2 23.11.2026 -
Juan Mendoza Güemes アクティブ 119 / 100 40% 1 23.11.2026 -
Moussa Sidibé Bhayangkara Presisi アクティブ 106 / 92 40% 3 21.11.2026 -
Ruslanbek Jiyanov Navbahor アクティブ 111 / 91 40% 1 18.11.2026 -
Diego Opazo Santiago Wanderers アクティブ 104 / 113 40% 2 17.11.2026 -
Anton Fase PSIM アクティブ 97 / 113 40% 2 15.11.2026 -
Michael Cacace WaiBOP United アクティブ 86 / 88 40% 1 15.11.2026 -
Juan Cruz Zurbriggen San Telmo アクティブ 105 / 93 40% 2 13.11.2026 -
Stefan Čolović Nasaf アクティブ 126 / 97 40% 1 13.11.2026 -
Johnathan Dewa United アクティブ 127 / 110 40% 1 13.11.2026 -
Diyor Xolmatov Navbahor アクティブ 86 / 136 40% 1 13.11.2026 -
Lautaro Millán Independiente アクティブ 104 / 133 40% 1 11.11.2026 -
Egy Maulana Vikri Dewa United アクティブ 127 / 89 40% 1 11.11.2026 -
Adrián Fernández Racing Club アクティブ 119 / 142 40% 1 08.11.2026 -
Jon Toral Persik アクティブ 123 / 115 40% 1 08.11.2026 -
Jorge Espejo Universidad de Concepcion アクティブ 111 / 113 40% 1 07.11.2026 -
Alan Coria Defensa y Justicia アクティブ 80 / 90 40% 2 06.11.2026 -
Riquelme Madura United アクティブ 118 / 106 40% 1 04.11.2026 -
Francisco Perruzzi Aldosivi アクティブ 126 / 91 40% 1 04.11.2026 -
Santiago Sosa Yung Defensa y Justicia アクティブ 126 / 106 40% 1 03.11.2026 -
Jasurbek Hakimov Shortan アクティブ 68 / 86 40% 3 01.11.2026 -
Bautista Fernández Temperley アクティブ 82 / 91 40% 1 01.11.2026 -
Ezra Walian Persik アクティブ 104 / 102 40% 1 31.10.2026 -
Agustín Zabaleta Chaco For Ever アクティブ 102 / 99 40% 1 27.10.2026 -
Zoran Marušić Neftchi アクティブ 141 / 138 40% 2 26.10.2026 -
Aleksandar Boljević Sogdiana アクティブ 116 / 120 40% 1 26.10.2026 -
Rayco Persita アクティブ 104 / 114 40% 1 26.10.2026 -
Franco Toloza Morón アクティブ 112 / 135 40% 1 24.10.2026 -
Julián Moya Gimnasia y Esgrima アクティブ 108 / 84 40% 1 24.10.2026 -
Thiago Perugini San Lorenzo アクティブ 120 / 89 40% 1 23.10.2026 -
Ivo Costantino Danubio アクティブ 127 / 105 40% 1 22.10.2026 -
Agustín Cardoso Patronato アクティブ 82 / 116 40% 2 21.10.2026 -
Juan Manuel Crespo Talleres アクティブ 63 / 87 40% 1 21.10.2026 -
Luciano Pascual Godoy Cruz アクティブ 104 / 118 40% 1 21.10.2026 -
Sergio Castel Persik アクティブ 124 / 111 40% 1 19.10.2026 -
Shohnazar Norbekov Mashal アクティブ 112 / 84 40% 3 18.10.2026 -
Nermin Haljeta PSIM アクティブ 94 / 118 40% 1 18.10.2026 -
Ricardo Williams Maluku Utara United アクティブ 84 / 86 40% 1 18.10.2026 -
Facundo Silvestre Uruguay Montevideo アクティブ 111 / 89 40% 2 17.10.2026 -
Marcos Astina Borneo アクティブ 112 / 96 40% 1 17.10.2026 -
Aaron Olanare Irtysh アクティブ 110 / 122 40% 1 14.10.2026 -
Manuel Rodríguez Millonarios アクティブ 67 / 96 40% 2 13.10.2026 -
Pinna Fortaleza アクティブ 102 / 123 40% 1 13.10.2026 -
Islom Sharipov Mashal アクティブ 108 / 62 40% 1 13.10.2026 -
Giorgio Costantini River Plate アクティブ 81 / 113 40% 1 11.10.2026 -
Gerónimo Tomasetti Temperley アクティブ 105 / 112 40% 3 10.10.2026 -
Santino Sottocorno Unión de Santa Fe アクティブ 62 / 88 40% 1 10.10.2026 -
Joaquín García Plaza Colonia アクティブ 79 / 81 40% 1 08.10.2026 -
Enzo Larrosa Independiente Medellin アクティブ 131 / 98 40% 1 08.10.2026 -
Zakaria Messibah Team Wellington アクティブ 85 / 105 40% 1 08.10.2026 -
Bautista La Licata Belgrano アクティブ 109 / 94 40% 1 08.10.2026 -
Mateo Zárate Barracas Central アクティブ 57 / 80 40% 1 06.10.2026 -
Genaro Rossi San Martín SJ アクティブ 120 / 111 40% 1 05.10.2026 -
Francisco Borda Central Norte アクティブ 82 / 102 40% 1 04.10.2026 -
Agustín Páez Maipú アクティブ 108 / 92 40% 1 04.10.2026 -
Alan Lombardi Ferro Carril Oeste アクティブ 62 / 57 40% 1 03.10.2026 -
Tiago Romero Atlanta アクティブ 65 / 76 40% 1 03.10.2026 -
Vitinho River Plate アクティブ 74 / 78 40% 2 02.10.2026 -
Joel Erlinch Racing アクティブ 83 / 72 40% 1 02.10.2026 -
Tomás Federico Alvarado アクティブ 103 / 86 40% 1 02.10.2026 -
Sairusi Nalaubu Lautoka アクティブ 89 / 87 40% 2 30.09.2026 -
Amir Urunov Obod アクティブ 74 / 83 40% 1 30.09.2026 -
Alan Salas San Lorenzo アクティブ 115 / 106 40% 1 29.09.2026 -
Gonzalo Tapia Palestino アクティブ 77 / 104 40% 1 29.09.2026 -
Jeycob Zabaleta Leones アクティブ 76 / 90 40% 1 28.09.2026 -
Peter Grance Martínez San Miguel アクティブ 131 / 81 40% 1 27.09.2026 -
Jano Franco Independiente Rivadavia アクティブ 77 / 96 40% 2 26.09.2026 -
Lucas Morelatto Persijap アクティブ 97 / 112 40% 1 26.09.2026 -
Setareki Hughes Rewa アクティブ 53 / 71 40% 1 24.09.2026 -
Thiago Luppi Ferro Carril Oeste アクティブ 112 / 94 40% 1 24.09.2026 -
Juan Pablo Moreno Defensa y Justicia アクティブ 91 / 83 40% 1 23.09.2026 -
Rodrigo Stocco Temperley アクティブ 102 / 69 40% 1 23.09.2026 -
Thiago Delgado Atlético Tucumán アクティブ 83 / 69 40% 1 21.09.2026 -
Alejandro Leiva Patronato アクティブ 89 / 88 40% 1 21.09.2026 -
Dimitar Mitkov Madura United アクティブ 105 / 121 40% 2 19.09.2026 -
Ramiro Pral Huracán アクティブ 101 / 102 40% 1 19.09.2026 -
Darío Cáceres Defensa y Justicia アクティブ 103 / 134 40% 1 17.09.2026 -
Lautaro Erchego Barracas Central アクティブ 73 / 105 40% 1 17.09.2026 -
Laureano Paez Colón アクティブ 108 / 81 40% 1 17.09.2026 -
Joaquín Rivero Instituto アクティブ 113 / 109 40% 1 16.09.2026 -
Maximiliano Badur Morón アクティブ 109 / 117 40% 1 15.09.2026 -
Luigi Cendales Godoy Cruz アクティブ 68 / 112 40% 2 14.09.2026 -
Duván Mósquera Aguilas Doradas アクティブ 78 / 108 40% 2 14.09.2026 -
Esteven Salguero Patriotas アクティブ 81 / 87 40% 1 13.09.2026 -
Luke Vickery Macarthur FC アクティブ 73 / 98 40% 1 10.09.2026 -
Ali Mekawir Navua アクティブ 70 / 57 40% 1 10.09.2026 -
Guillermo Segovia River Plate アクティブ 60 / 71 40% 1 10.09.2026 -
Mateo Ortale Maipú アクティブ 81 / 114 40% 2 09.09.2026 -
Jaiden Kucharski Perth Glory アクティブ 106 / 102 40% 1 08.09.2026 -
Hugo López Central Norte アクティブ 87 / 79 40% 1 05.09.2026 -
Valentín Culasso Talleres アクティブ 71 / 108 40% 1 05.09.2026 -
Maximiliano Puig Barracas Central アクティブ 106 / 80 40% 2 03.09.2026 -
Daniel Monardes San Luis アクティブ 73 / 74 40% 1 03.09.2026 -
Mateo Muñoz Vélez アクティブ 82 / 114 40% 2 01.09.2026 -
Joel Flecha Barracas Central アクティブ 110 / 107 40% 2 01.09.2026 -
Nicolás Laporte Artigas アクティブ 53 / 61 40% 1 31.08.2026 -
Imanol García Persik アクティブ 82 / 120 40% 1 31.08.2026 -
Fernando Román Defensa y Justicia アクティブ 98 / 108 40% 1 30.08.2026 -
Agustín Giménez Colón アクティブ 91 / 107 40% 1 29.08.2026 -
Elián Giménez Sarmiento アクティブ 99 / 146 40% 1 29.08.2026 -
Tiago Taobas Central Norte アクティブ 72 / 98 40% 1 27.08.2026 -
Ignacio Marina Platense アクティブ 101 / 66 40% 1 27.08.2026 -
Lautaro Puma Ferro Carril Oeste アクティブ 78 / 113 40% 1 26.08.2026 -
Diego Sánchez River Plate アクティブ 97 / 106 40% 1 25.08.2026 -
Carlo Lattanzio San Martín SJ アクティブ 113 / 107 40% 1 25.08.2026 -
Francisco La Mantia Caracas アクティブ 80 / 125 40% 1 24.08.2026 -
Manuel Sulbarán Deportivo La Guaira アクティブ 86 / 81 40% 1 23.08.2026 -
Joaquín Parras Independiente アクティブ 114 / 84 40% 1 20.08.2026 -
Tobías Schilman San Telmo アクティブ 79 / 100 40% 1 20.08.2026 -
Franco Sivetti Gimnasia y Tiro アクティブ 87 / 131 40% 1 18.08.2026 -
Lucas Richarte Temperley アクティブ 85 / 103 40% 1 17.08.2026 -
Luca Castillo Ferro Carril Oeste アクティブ 102 / 107 40% 1 17.08.2026 -
Fabrizio Ghiggia Racing アクティブ 92 / 126 40% 1 02.08.2026 -
Franco Martínez Artigas アクティブ 74 / 100 40% 1 02.08.2026 -
Nicolás Sosa Racing アクティブ 104 / 126 40% 1 01.08.2026 -